[[{"header":{"parameterUnit":"m.s-1","parameterCategory":2,"la1":30.2991,"la2":30.254,"lo1":-89.0895,"lo2":-89.0444,"dy":0.0017,"dx":0.0017,"nx":28,"ny":28,"refTime":"2023-08-11T09:00:00:Z","depth":"0","parameterNumber":2,"parameterNumberName":"U-component_of_CURRENTS"},"data":[0,0,0,0,0,0,0,0,0,0,0,0,0,0,0,0,0,0,0,0,0,0,0,0,0,0,0,0,0,0,0,0,0,0,0,0,0,0,0,0,0,0,0,0,0,0,0,0,0,0,0,0,0,0,0,0,0,0,0.4545,0.4544,0,0.4471,0.447,0.4468,0.4394,0.4393,0.4393,0.4392,0.4448,0.445,0.4452,0,0,0,0,0,0,0,0,0,0,0,0,0,0.4658,0.4656,0.4545,0.4544,0.4544,0.4471,0.447,0.4468,0.4394,0.4393,0.4393,0.4392,0.4447,0.445,0.4452,0,0,0,0,0,0,0,0,0,0,0,0,0,0.4595,0.4655,0.4545,0.4501,0.4497,0.4471,0.4469,0.4468,0.4394,0.4393,0.4392,0.4392,0.4447,0.445,0.4453,0.4489,0,0,0.4462,0.4463,0,0,0,0,0,0,0,0,0.4599,0.459,0.4508,0.4504,0.4499,0.4445,0.453,0.4483,0.4394,0.4429,0.4392,0.4391,0.4463,0.4464,0.4444,0.4492,0.4494,0.4462,0.4464,0.4466,0.4466,0,0,0,0,0,0,0,0.4603,0.4593,0.4511,0.4508,0.4503,0.4498,0.4487,0.452,0.4451,0.4425,0.4421,0.442,0.446,0.4441,0.4445,0.4495,0.4462,0.4465,0.4467,0.4468,0.456,0.456,0,0,0,0,0,0,0.462,0.4597,0.4513,0.4509,0.4553,0.4497,0.4485,0.4459,0.4447,0.4445,0.4421,0.4417,0.4436,0.4442,0.4447,0.4447,0.4465,0.4468,0.447,0.4559,0.456,0.4561,0,0,0,0,0,0,0.4622,0.4612,0.4517,0.4557,0.4545,0.4496,0.4468,0.4459,0.4436,0.4443,0.4442,0.4409,0.4436,0.4443,0.4457,0.445,0.447,0.4473,0.4559,0.4559,0.456,0.4475,0,0,0,0,0,0,0.4625,0.4613,0.4605,0.4557,0.4543,0.4493,0.4469,0.4458,0.4439,0.4433,0.4433,0.4437,0.4436,0.4452,0.446,0.4455,0.4475,0.4558,0.4559,0.456,0.4477,0.4473,0.4469,0,0,0,0,0,0.4629,0.462,0.4604,0.4595,0.4531,0.4494,0.4485,0.4446,0.444,0.4424,0.4419,0.4436,0.4465,0.4454,0.4464,0.4459,0.4557,0.4559,0.456,0.4479,0.4473,0.4469,0,0,0,0,0,0,0.4673,0.4611,0.4592,0.4566,0.4532,0.4482,0.447,0.4453,0.4434,0.4433,0.4438,0.4441,0.4456,0.448,0.4468,0.4494,0.4519,0.4522,0.4454,0.4449,0.4445,0.4438,0.4477,0,0,0,0,0,0.468,0.4647,0.4599,0.4579,0.4561,0.4519,0.4504,0.4477,0.4455,0.4443,0.4437,0.4451,0.4471,0.4475,0.4496,0.451,0.4544,0.4519,0.4515,0.4512,0.4515,0.4586,0.4588,0.4565,0.4565,0.4565,0,0,0.4697,0.4658,0.4642,0.4587,0.4554,0.4506,0.4505,0.4477,0.4431,0.4461,0.4408,0.4443,0.4476,0.4474,0.4485,0.4489,0.4526,0.4513,0.4509,0.4515,0.4587,0.4589,0.4591,0.4566,0.4566,0.4566,0,0,0.4694,0.4672,0.4631,0.4597,0.455,0.4516,0.451,0.4457,0.4424,0.4391,0.4409,0.4435,0.444,0.4456,0.447,0.447,0.4511,0.4489,0.445,0.4517,0.4519,0.4522,0.4516,0.4519,0.4477,0.4476,0.4476,0,0.4716,0.4644,0.4621,0.4569,0.4534,0.4516,0.4462,0.4428,0.4384,0.4366,0.4364,0.4398,0.4425,0.4446,0.4436,0.4458,0.4488,0.4454,0.451,0.4513,0.4517,0.4512,0.4516,0.4473,0.4473,0.4473,0.4474,0,0.4661,0.4611,0.4589,0.45,0.447,0.4427,0.4377,0.4342,0.4313,0.4287,0.4295,0.4334,0.4354,0.4376,0.4397,0.4446,0.4451,0.45,0.4513,0.4514,0.4508,0.4513,0.4467,0.4468,0.4469,0.447,0,0,0.4675,0.4566,0.4555,0.4493,0.4425,0.4384,0.4324,0.4257,0.4215,0.4209,0.4176,0.4225,0.4269,0.4293,0.4349,0.4408,0.444,0.446,0.4465,0.4437,0.4543,0.4233,0.421,0.4509,0.4511,0.4512,0.4507,0,0.4625,0.4511,0.4474,0.4368,0.4299,0.4269,0.4207,0.4163,0.4133,0.4101,0.4165,0.4169,0.4229,0.4253,0.4321,0.4423,0.4461,0.4433,0.4563,0.4565,0.4277,0.4209,0.4002,0.3954,0.4513,0.4514,0.4515,0,0.4559,0.4487,0.4374,0.4264,0.4235,0.418,0.4088,0.4037,0.4015,0.4003,0.4041,0.4085,0.4158,0.4225,0.4372,0.4355,0.4439,0.4517,0.452,0.4269,0.4266,0.4058,0.3944,0.3855,0.4525,0.4524,0.4523,0,0.4529,0.4409,0.4311,0.4273,0.416,0.411,0.4061,0.4011,0.3961,0.3963,0.3949,0.4035,0.4075,0.4217,0.4314,0.437,0.4459,0.4557,0.4352,0.433,0.4194,0.4153,0.3994,0.4669,0.4669,0.4669,0.4669,0,0.446,0.4376,0.4287,0.4226,0.4116,0.4072,0.3974,0.3938,0.3907,0.3843,0.3918,0.3903,0.4088,0.4137,0.4274,0.4253,0.4415,0.4306,0.43,0.4146,0.4103,0.4053,0.4042,0.4669,0.4669,0.4669,0.4669,0,0.4405,0.4349,0.4231,0.4125,0.4087,0.4014,0.3911,0.3843,0.3837,0.3767,0.3768,0.3812,0.3834,0.3944,0.4123,0.4134,0.4042,0.4168,0.3904,0.3861,0.3528,0.3518,0.322,0.3155,0.3934,0.3926,0.3919,0,0.4346,0.4283,0.4167,0.4094,0.4034,0.3931,0.3849,0.3809,0.374,0.3691,0.3653,0.3643,0.3571,0.3618,0.3644,0.3687,0.3737,0.3518,0.3573,0.3407,0.3403,0.3329,0.33,0.3379,0.3369,0.336,0.3353,0,0.4236,0.4212,0.4121,0.3991,0.3893,0.3773,0.3666,0.3611,0.3546,0.3489,0.3372,0.3312,0.3252,0.3129,0.3109,0.3167,0.3257,0.3331,0.3296,0.3008,0.2795,0.2763,0.3453,0.3277,0.3285,0.329,0.3294,0.3297,0.4145,0.4078,0.3974,0.382,0.373,0.3582,0.3417,0.3333,0.32,0.2982,0.3086,0.2863,0.2773,0.2677,0.268,0.2515,0.267,0.2522,0.2546,0.2502,0.2334,0.2746,0.2464,0.2466,0.2469,0.2471,0.2473,0,0.3941,0.3881,0.3787,0.3587,0.3421,0.3422,0.3234,0.3022,0.2788,0.2674,0.251,0.2274,0.2119,0.2077,0.1944,0.1824,0.1855,0.1783,0.1759,0.1801,0.2298,0.2167,0.1638,0.1638,0.1638,0.1638,0.1638,0.1638,0.3816,0.3651,0.3601,0.3283,0.3162,0.2842,0.2689,0.2448,0.2287,0.1931,0.1706,0.1652,0.1656,0.1473,0.1345,0.1334,0.1338,0.112,0.1257,0.1728,0.1806,0.188,0.1755,0.1147,0.1147,0.0714,0.071,0.0707]},{"header":{"parameterUnit":"m.s-1","parameterCategory":2,"la1":30.2991,"la2":30.254,"lo1":-89.0895,"lo2":-89.0444,"dy":0.0017,"dx":0.0017,"nx":28,"ny":28,"refTime":"2023-08-11T09:00:00:Z","depth":"0","parameterNumber":3,"parameterNumberName":"V-component_of_CURRENTS"},"data":[0,0,0,0,0,0,0,0,0,0,0,0,0,0,0,0,0,0,0,0,0,0,0,0,0,0,0,0,0,0,0,0,0,0,0,0,0,0,0,0,0,0,0,0,0,0,0,0,0,0,0,0,0,0,0,0,0,0,0.0795,0.0797,0,0.0979,0.0981,0.0983,0.1007,0.1005,0.1004,0.1002,0.1216,0.1222,0.1229,0,0,0,0,0,0,0,0,0,0,0,0,0,0.0575,0.0578,0.0794,0.0797,0.08,0.0979,0.0981,0.0984,0.1007,0.1005,0.1004,0.1002,0.1213,0.1222,0.123,0,0,0,0,0,0,0,0,0,0,0,0,0,0.0703,0.0579,0.0794,0.0835,0.0841,0.0979,0.0981,0.0984,0.1007,0.1005,0.1003,0.1001,0.121,0.1221,0.1231,0.1341,0,0,0.1263,0.1268,0,0,0,0,0,0,0,0,0.0695,0.071,0.0827,0.0833,0.084,0.0971,0.0983,0.1106,0.1008,0.0941,0.1002,0.1,0.114,0.1156,0.1191,0.1351,0.136,0.1264,0.1271,0.1275,0.1278,0,0,0,0,0,0,0,0.0686,0.0703,0.0864,0.083,0.0838,0.0884,0.0898,0.1006,0.1049,0.0947,0.095,0.0976,0.1143,0.1181,0.1196,0.1363,0.1264,0.1273,0.128,0.1284,0.1641,0.1644,0,0,0,0,0,0,0.0668,0.0695,0.0859,0.087,0.0764,0.089,0.0905,0.0928,0.1047,0.1064,0.0978,0.0977,0.1164,0.1184,0.1204,0.1378,0.1275,0.1285,0.1291,0.1638,0.1642,0.1645,0,0,0,0,0,0,0.0662,0.068,0.0851,0.0789,0.0814,0.0895,0.0921,0.0933,0.0974,0.1071,0.1087,0.1006,0.1163,0.1189,0.1325,0.1384,0.129,0.13,0.1634,0.1639,0.1643,0.1702,0,0,0,0,0,0,0.0655,0.0677,0.0689,0.0788,0.0817,0.0936,0.0924,0.0938,0.0995,0.0995,0.1102,0.1119,0.1163,0.1309,0.1336,0.1397,0.1308,0.163,0.1636,0.1642,0.1696,0.1708,0.1718,0,0,0,0,0,0.0646,0.0673,0.0688,0.0708,0.083,0.0938,0.0958,0.1005,0.0999,0.103,0.1113,0.1115,0.1364,0.1322,0.1352,0.1417,0.1627,0.1635,0.1642,0.1691,0.1706,0.1718,0,0,0,0,0,0,0.0579,0.0682,0.0699,0.0753,0.0839,0.0943,0.0978,0.1016,0.1106,0.1103,0.1178,0.1204,0.1344,0.1378,0.1329,0.1535,0.1489,0.1502,0.1516,0.1531,0.1542,0.1522,0.1317,0,0,0,0,0,0.0572,0.0624,0.0723,0.0771,0.0806,0.0893,0.0942,0.0982,0.1075,0.1109,0.1192,0.1284,0.1401,0.1458,0.1557,0.1684,0.1644,0.1738,0.175,0.1759,0.1763,0.1748,0.1756,0.1668,0.1668,0.1668,0,0,0.0566,0.0626,0.0657,0.0761,0.0823,0.0914,0.0916,0.0995,0.1084,0.1125,0.1261,0.1337,0.1446,0.1586,0.1648,0.1618,0.1762,0.1768,0.1775,0.1775,0.1756,0.1764,0.1771,0.1673,0.1672,0.1672,0,0,0.0587,0.0623,0.0676,0.0754,0.0855,0.0924,0.0948,0.1062,0.1114,0.126,0.1315,0.1424,0.1592,0.1682,0.1751,0.1886,0.1826,0.1911,0.1954,0.1939,0.1945,0.1949,0.1886,0.1885,0.1909,0.1909,0.1909,0,0.0564,0.0655,0.071,0.0788,0.0865,0.0931,0.1021,0.1104,0.1254,0.1317,0.1303,0.156,0.1642,0.1829,0.1872,0.1913,0.1863,0.1892,0.1948,0.1952,0.1956,0.189,0.1888,0.1912,0.1912,0.1912,0.1911,0,0.0644,0.0718,0.0756,0.0883,0.0969,0.1056,0.1177,0.1261,0.1325,0.141,0.158,0.1688,0.1824,0.1878,0.1927,0.2028,0.1969,0.1963,0.19,0.1967,0.1895,0.1891,0.1918,0.1916,0.1915,0.1914,0,0,0.0585,0.0773,0.0788,0.0868,0.1027,0.111,0.1253,0.1409,0.15,0.1614,0.1731,0.1927,0.1939,0.2016,0.2079,0.2085,0.207,0.2031,0.2028,0.1942,0.1984,0.1915,0.1903,0.2052,0.2053,0.2053,0.1912,0,0.0628,0.0786,0.0881,0.1047,0.1139,0.1254,0.1387,0.1529,0.1635,0.1757,0.1856,0.1984,0.2007,0.2056,0.2078,0.2087,0.2067,0.2106,0.1955,0.195,0.186,0.19,0.185,0.1719,0.1908,0.1907,0.1906,0,0.068,0.0781,0.0941,0.1139,0.1187,0.1294,0.1495,0.1624,0.1799,0.1869,0.1983,0.2042,0.2135,0.2102,0.2106,0.2117,0.2054,0.2028,0.2021,0.1935,0.1876,0.1691,0.1704,0.173,0.19,0.19,0.1901,0,0.0631,0.083,0.0958,0.1031,0.1254,0.1339,0.1455,0.1646,0.1753,0.1913,0.1963,0.2083,0.2108,0.208,0.2042,0.2053,0.1979,0.1981,0.1858,0.1849,0.177,0.1754,0.1771,0.1943,0.1943,0.1944,0.1944,0,0.0658,0.0757,0.0938,0.1012,0.1156,0.1311,0.1465,0.1599,0.1762,0.1868,0.1987,0.2057,0.2091,0.2072,0.2027,0.1921,0.1951,0.1864,0.182,0.1788,0.1777,0.1766,0.1797,0.1938,0.194,0.1941,0.1942,0,0.0611,0.073,0.0882,0.1087,0.1142,0.1245,0.1445,0.1556,0.1694,0.1819,0.1852,0.2,0.1966,0.1967,0.1909,0.1875,0.1789,0.1744,0.1684,0.1638,0.1562,0.1598,0.1516,0.1576,0.1585,0.1583,0.1581,0,0.0617,0.0685,0.0895,0.0969,0.106,0.1208,0.1311,0.15,0.1604,0.1778,0.1822,0.1851,0.1881,0.1786,0.1723,0.1607,0.1664,0.1496,0.1542,0.1553,0.1561,0.1575,0.1637,0.144,0.1437,0.1435,0.1433,0,0.0619,0.0686,0.0808,0.0945,0.1058,0.1187,0.1329,0.1392,0.1587,0.165,0.1731,0.1758,0.1711,0.1616,0.1498,0.1444,0.1524,0.1441,0.1483,0.148,0.1465,0.1503,0.151,0.1411,0.1413,0.1415,0.1416,0.1417,0.0609,0.0685,0.083,0.0947,0.1063,0.1163,0.1209,0.1328,0.1424,0.1492,0.1572,0.1558,0.1533,0.1383,0.1326,0.1251,0.1333,0.125,0.1292,0.1304,0.1383,0.1323,0.1169,0.117,0.117,0.1171,0.1171,0,0.0621,0.0704,0.0821,0.0965,0.1039,0.1115,0.1221,0.1222,0.1246,0.133,0.1333,0.1289,0.1223,0.1203,0.1126,0.1121,0.1173,0.115,0.1195,0.1274,0.1226,0.1245,0.1064,0.1064,0.1064,0.1064,0.1064,0.1064,0.0639,0.0743,0.0802,0.0906,0.0975,0.1009,0.103,0.1014,0.1049,0.1019,0.1003,0.1044,0.1167,0.1068,0.108,0.1091,0.1217,0.1131,0.1263,0.1256,0.1271,0.1285,0.1313,0.1149,0.1149,0.1306,0.1308,0.1309]}],[{"header":{"parameterUnit":"m.s-1","parameterCategory":2,"la1":30.2991,"la2":30.254,"lo1":-89.0895,"lo2":-89.0444,"dy":0.0017,"dx":0.0017,"nx":28,"ny":28,"refTime":"2023-08-11T09:00:00:Z","depth":"2","parameterNumber":2,"parameterNumberName":"U-component_of_CURRENTS"},"data":[0,0,0,0,0,0,0,0,0,0,0,0,0,0,0,0,0,0,0,0,0,0,0,0,0,0,0,0,0,0,0,0,0,0,0,0,0,0,0,0,0,0,0,0,0,0,0,0,0,0,0,0,0,0,0,0,0,0,0.2231,0.2232,0,0.2341,0.2342,0.2343,0.2493,0.2495,0.2498,0.25,0.2801,0.2807,0.2813,0,0,0,0,0,0,0,0,0,0,0,0,0,0.2072,0.2075,0.223,0.2232,0.2233,0.234,0.2342,0.2344,0.2493,0.2496,0.2498,0.2501,0.2799,0.2806,0.2813,0,0,0,0,0,0,0,0,0,0,0,0,0,0.2159,0.2075,0.223,0.2319,0.2328,0.234,0.2342,0.2344,0.2492,0.2496,0.2499,0.2502,0.2797,0.2805,0.2814,0.2798,0,0,0.2841,0.2845,0,0,0,0,0,0,0,0,0.2154,0.2165,0.2305,0.2313,0.2323,0.2405,0.2396,0.2505,0.2491,0.2432,0.25,0.2504,0.2682,0.2701,0.2714,0.2812,0.2825,0.2842,0.2847,0.2851,0.2853,0,0,0,0,0,0,0,0.2148,0.2161,0.2276,0.2305,0.2316,0.2326,0.2343,0.2417,0.2541,0.2437,0.2448,0.2456,0.269,0.2705,0.2723,0.283,0.2841,0.2849,0.2855,0.2858,0.3228,0.3233,0,0,0,0,0,0,0.2131,0.2155,0.2273,0.2279,0.2243,0.2326,0.2346,0.2377,0.2537,0.2562,0.2453,0.2462,0.2688,0.2712,0.2734,0.2915,0.2851,0.2859,0.2864,0.3224,0.3229,0.3234,0,0,0,0,0,0,0.2127,0.2141,0.2268,0.2217,0.2233,0.2326,0.2359,0.2377,0.2459,0.2546,0.2577,0.2524,0.2692,0.2722,0.2852,0.2921,0.2863,0.2871,0.3218,0.3225,0.3232,0.3156,0,0,0,0,0,0,0.2123,0.214,0.2196,0.2216,0.2236,0.2293,0.2356,0.2376,0.2453,0.2469,0.2615,0.2643,0.2697,0.2838,0.286,0.2932,0.2878,0.3212,0.3221,0.323,0.3153,0.316,0.3166,0,0,0,0,0,0.2117,0.2156,0.2198,0.2214,0.2298,0.2292,0.2303,0.238,0.2454,0.2473,0.2594,0.2642,0.2912,0.2846,0.2872,0.2948,0.3208,0.3219,0.3229,0.315,0.3158,0.3165,0,0,0,0,0,0,0.2133,0.2175,0.2222,0.2283,0.2298,0.2318,0.2357,0.2407,0.2512,0.2564,0.2663,0.2696,0.2853,0.2916,0.2842,0.3094,0.3084,0.3099,0.3016,0.3024,0.3031,0.2991,0.2885,0,0,0,0,0,0.2155,0.2197,0.222,0.2274,0.2283,0.2334,0.2363,0.2404,0.2475,0.2529,0.2639,0.2781,0.2901,0.2972,0.3083,0.3184,0.3167,0.3272,0.3278,0.3282,0.3277,0.3267,0.3267,0.3268,0.3268,0.3268,0,0,0.218,0.2208,0.2239,0.228,0.2309,0.2306,0.2363,0.2402,0.2446,0.2545,0.2687,0.2804,0.2939,0.3068,0.3147,0.3133,0.3277,0.3295,0.3296,0.3289,0.3277,0.3275,0.3273,0.3275,0.3274,0.3273,0,0,0.2188,0.2267,0.2284,0.2285,0.232,0.2332,0.2352,0.2408,0.2494,0.2597,0.2717,0.285,0.3035,0.3125,0.3197,0.3306,0.3313,0.34,0.3384,0.3374,0.337,0.3367,0.332,0.3313,0.3395,0.3395,0.3395,0,0.2234,0.2251,0.2286,0.2276,0.2289,0.2344,0.2342,0.2407,0.2516,0.2623,0.265,0.2954,0.3048,0.3207,0.3254,0.3311,0.3301,0.3323,0.3368,0.3365,0.3363,0.3316,0.3309,0.3393,0.3393,0.3393,0.3393,0,0.2213,0.2246,0.2246,0.2261,0.2269,0.2278,0.2331,0.2419,0.2534,0.2635,0.2851,0.2953,0.3135,0.3202,0.3253,0.3347,0.3342,0.3364,0.3312,0.3355,0.3307,0.33,0.3389,0.339,0.3391,0.3391,0,0,0.229,0.2247,0.2255,0.2255,0.227,0.2266,0.2351,0.2461,0.2561,0.2715,0.2845,0.305,0.3151,0.3239,0.333,0.3321,0.3275,0.3338,0.3339,0.3225,0.3228,0.2899,0.286,0.3299,0.3299,0.3298,0.3186,0,0.2287,0.2243,0.2231,0.2222,0.2215,0.2272,0.2334,0.2456,0.2588,0.2728,0.2905,0.3065,0.3155,0.3231,0.3246,0.3289,0.3263,0.3302,0.3263,0.3261,0.2906,0.2843,0.2808,0.2676,0.318,0.3179,0.3178,0,0.2298,0.226,0.2239,0.2223,0.223,0.2253,0.2373,0.2431,0.2642,0.2762,0.2946,0.3068,0.3178,0.3185,0.3237,0.3265,0.3247,0.3234,0.323,0.294,0.2919,0.2731,0.2646,0.3167,0.3168,0.3169,0.317,0,0.2334,0.2284,0.2273,0.2263,0.225,0.2318,0.2351,0.2515,0.2608,0.2799,0.2876,0.304,0.3107,0.3124,0.3156,0.3194,0.3123,0.3165,0.2849,0.2827,0.2793,0.2764,0.3138,0.3138,0.3138,0.3138,0.3139,0,0.2341,0.2339,0.231,0.2301,0.2382,0.2344,0.2462,0.2564,0.2655,0.2759,0.2915,0.2963,0.3089,0.3095,0.3107,0.2929,0.3092,0.2798,0.2755,0.2764,0.2735,0.3183,0.319,0.3134,0.3135,0.3136,0.3137,0,0.2385,0.2358,0.2364,0.2359,0.2419,0.2481,0.2555,0.2588,0.2686,0.2785,0.2838,0.2926,0.2883,0.2939,0.2916,0.2813,0.2706,0.2614,0.2578,0.2524,0.243,0.2437,0.22,0.2187,0.2176,0.2167,0.2159,0,0.2383,0.2387,0.2453,0.2517,0.2548,0.2626,0.2679,0.2707,0.2701,0.2746,0.2757,0.2744,0.2702,0.2504,0.2392,0.2252,0.2425,0.202,0.2033,0.234,0.2326,0.2349,0.237,0.2004,0.1996,0.1989,0.1983,0,0.238,0.2438,0.2428,0.2575,0.2661,0.2704,0.2744,0.2728,0.2693,0.2681,0.2596,0.2535,0.2373,0.2137,0.1894,0.1827,0.2022,0.185,0.2236,0.2176,0.2125,0.212,0.2154,0.1922,0.1928,0.1933,0.1936,0.1938,0.2421,0.2444,0.2478,0.2621,0.269,0.2714,0.2632,0.2557,0.2465,0.229,0.2356,0.2137,0.2031,0.1553,0.1465,0.1396,0.1487,0.1424,0.1462,0.1503,0.1428,0.1353,0.0993,0.0993,0.0994,0.0995,0.0995,0,0.2458,0.249,0.2532,0.2602,0.2557,0.2672,0.259,0.2382,0.2124,0.2034,0.1874,0.1552,0.1332,0.1288,0.11,0.0937,0.1136,0.0881,0.1221,0.1277,0.1328,0.1262,0.0774,0.0773,0.0772,0.0771,0,0,0.2491,0.2492,0.2478,0.2438,0.2466,0.2283,0.2176,0.1931,0.1759,0.1443,0.1264,0.122,0.1208,0.0955,0.0898,0.0838,0.1077,0.0808,0.0993,0.1455,0.1506,0.1634,0.1587,0,0,0,0,0]},{"header":{"parameterUnit":"m.s-1","parameterCategory":2,"la1":30.2991,"la2":30.254,"lo1":-89.0895,"lo2":-89.0444,"dy":0.0017,"dx":0.0017,"nx":28,"ny":28,"refTime":"2023-08-11T09:00:00:Z","depth":"2","parameterNumber":3,"parameterNumberName":"V-component_of_CURRENTS"},"data":[0,0,0,0,0,0,0,0,0,0,0,0,0,0,0,0,0,0,0,0,0,0,0,0,0,0,0,0,0,0,0,0,0,0,0,0,0,0,0,0,0,0,0,0,0,0,0,0,0,0,0,0,0,0,0,0,0,0,-0.0497,-0.0496,0,-0.0426,-0.0425,-0.0425,-0.0422,-0.0423,-0.0424,-0.0425,-0.0293,-0.0289,-0.0284,0,0,0,0,0,0,0,0,0,0,0,0,0,-0.0639,-0.0636,-0.0497,-0.0496,-0.0495,-0.0427,-0.0425,-0.0424,-0.0422,-0.0423,-0.0425,-0.0426,-0.0294,-0.0289,-0.0284,0,0,0,0,0,0,0,0,0,0,0,0,0,-0.0572,-0.0636,-0.0497,-0.0487,-0.0486,-0.0427,-0.0425,-0.0424,-0.0422,-0.0423,-0.0425,-0.0426,-0.0296,-0.029,-0.0283,-0.0211,0,0,-0.0262,-0.026,0,0,0,0,0,0,0,0,-0.0576,-0.0567,-0.0489,-0.0488,-0.0486,-0.0436,-0.0427,-0.035,-0.0421,-0.0444,-0.0425,-0.0427,-0.0335,-0.0325,-0.0307,-0.0205,-0.0199,-0.0262,-0.0258,-0.0255,-0.0253,0,0,0,0,0,0,0,-0.0581,-0.057,-0.0467,-0.0488,-0.0487,-0.049,-0.0482,-0.0413,-0.0379,-0.0442,-0.0442,-0.0437,-0.0334,-0.0314,-0.0304,-0.0197,-0.0262,-0.0256,-0.0252,-0.0249,0.0076,0.0081,0,0,0,0,0,0,-0.059,-0.0574,-0.0469,-0.0465,-0.0538,-0.0486,-0.0477,-0.0449,-0.0381,-0.0374,-0.0436,-0.0437,-0.0324,-0.0312,-0.0299,-0.0145,-0.0255,-0.0249,-0.0245,0.0072,0.0077,0.0082,0,0,0,0,0,0,-0.0593,-0.058,-0.0472,-0.0521,-0.0508,-0.0482,-0.0451,-0.0447,-0.0438,-0.0378,-0.0369,-0.0433,-0.0325,-0.0308,-0.0231,-0.0143,-0.0246,-0.024,0.0066,0.0074,0.008,0.0121,0,0,0,0,0,0,-0.0597,-0.0581,-0.0578,-0.0521,-0.0506,-0.0429,-0.045,-0.0445,-0.0433,-0.0434,-0.0371,-0.036,-0.0325,-0.0241,-0.0224,-0.0135,-0.0234,0.0061,0.007,0.0078,0.0114,0.0129,0.0141,0,0,0,0,0,-0.0602,-0.0586,-0.0577,-0.0566,-0.0496,-0.0428,-0.042,-0.0407,-0.0431,-0.0409,-0.0371,-0.0363,-0.0172,-0.0233,-0.0214,-0.0121,0.0056,0.0067,0.0077,0.0108,0.0126,0.0141,0,0,0,0,0,0,-0.0643,-0.0583,-0.0572,-0.0539,-0.0485,-0.0429,-0.0422,-0.041,-0.0364,-0.0375,-0.0329,-0.0312,-0.0199,-0.0165,-0.0234,0.0006,-0.0044,-0.003,-0.0027,-0.001,0.0004,0.0005,-0.0229,0,0,0,0,0,-0.065,-0.0631,-0.0558,-0.0537,-0.0509,-0.0468,-0.0449,-0.0429,-0.0379,-0.0364,-0.0309,-0.0234,-0.0134,-0.0087,-0.0003,0.0107,0.0077,0.0192,0.0206,0.0217,0.0237,0.0198,0.0207,0.0117,0.0117,0.0116,0,0,-0.0664,-0.0631,-0.0621,-0.0547,-0.0513,-0.0448,-0.0459,-0.0421,-0.035,-0.0352,-0.025,-0.0193,-0.0096,0.0037,0.0094,0.0069,0.0239,0.023,0.0238,0.0252,0.0209,0.0217,0.0223,0.0124,0.0122,0.0121,0,0,-0.0662,-0.0644,-0.0613,-0.0559,-0.05,-0.0461,-0.0449,-0.0373,-0.0322,-0.0223,-0.0184,-0.0094,0.0045,0.014,0.0204,0.0345,0.0305,0.0397,0.047,0.0432,0.0436,0.044,0.0434,0.0436,0.0408,0.0408,0.0409,0,-0.0681,-0.0619,-0.0594,-0.0532,-0.0489,-0.0462,-0.0394,-0.0323,-0.0227,-0.0131,-0.0183,0.0052,0.0103,0.0297,0.0351,0.0375,0.0343,0.0385,0.044,0.0443,0.0446,0.0438,0.044,0.0412,0.0411,0.0411,0.0411,0,-0.0626,-0.058,-0.0557,-0.0469,-0.0418,-0.0362,-0.0259,-0.0185,-0.0141,-0.0029,0.015,0.0195,0.0348,0.0388,0.041,0.0524,0.0492,0.0442,0.0372,0.0455,0.0445,0.0446,0.0416,0.0415,0.0414,0.0413,0,0,-0.0646,-0.0538,-0.0527,-0.0472,-0.0377,-0.032,-0.0195,-0.0021,0.0092,0.0193,0.0346,0.0505,0.0541,0.0615,0.0647,0.0613,0.0602,0.0541,0.0537,0.0492,0.0527,0.0526,0.0526,0.0526,0.0527,0.0527,0.0516,0,-0.0604,-0.0492,-0.0443,-0.0333,-0.0264,-0.0188,-0.0067,0.0093,0.0215,0.0375,0.0489,0.0639,0.0633,0.0675,0.0662,0.0615,0.0605,0.0611,0.0494,0.0492,0.0442,0.0528,0.0468,0.0454,0.0517,0.0517,0.0517,0,-0.0545,-0.0483,-0.0371,-0.0242,-0.0202,-0.013,0.0058,0.0177,0.0429,0.0527,0.0696,0.0786,0.0885,0.0775,0.0755,0.0747,0.067,0.0588,0.0584,0.0569,0.0493,0.0384,0.0453,0.0518,0.0518,0.0518,0.0518,0,-0.0555,-0.0424,-0.0341,-0.0295,-0.0147,-0.0067,0.0022,0.025,0.0401,0.0626,0.073,0.0875,0.0906,0.0834,0.0769,0.0738,0.0655,0.059,0.0535,0.0534,0.0461,0.0453,0.0546,0.0546,0.0546,0.0546,0.0546,0,-0.0512,-0.0445,-0.0339,-0.0287,-0.0138,-0.0066,0.0119,0.0261,0.0449,0.0659,0.0805,0.0927,0.0896,0.09,0.0799,0.0701,0.0699,0.0578,0.0536,0.0483,0.0478,0.051,0.0506,0.0546,0.0546,0.0546,0.0546,0,-0.0517,-0.0452,-0.0344,-0.0206,-0.0131,-0.0033,0.0184,0.032,0.0467,0.0701,0.0775,0.0959,0.0957,0.0933,0.0803,0.0739,0.0627,0.0589,0.056,0.0516,0.0526,0.0526,0.0532,0.0532,0.0532,0.0532,0.0532,0,-0.0499,-0.0454,-0.0286,-0.0173,-0.0098,0.0058,0.0195,0.0349,0.0487,0.0735,0.0841,0.094,0.1042,0.0909,0.0776,0.0641,0.0638,0.052,0.0465,0.057,0.0527,0.0526,0.0526,0.039,0.0389,0.0388,0.0387,0,-0.0468,-0.0428,-0.0338,-0.0126,0.0025,0.0213,0.0388,0.0483,0.0658,0.0793,0.0965,0.1041,0.0991,0.0852,0.0699,0.0603,0.0541,0.0497,0.0594,0.0412,0.0436,0.0394,0.0398,0.0378,0.0379,0.038,0.038,0.038,-0.0454,-0.0371,-0.0251,-0.0038,0.0142,0.035,0.0445,0.0573,0.0725,0.087,0.0954,0.0984,0.0894,0.0646,0.0563,0.0481,0.0477,0.0404,0.0406,0.0409,0.0405,0.0428,0.0369,0.037,0.0371,0.0371,0.0372,0,-0.0386,-0.0278,-0.0127,0.0096,0.0271,0.0383,0.0577,0.0603,0.0696,0.0805,0.0866,0.0727,0.0627,0.0567,0.0409,0.0333,0.0322,0.0332,0.0306,0.0313,0.0319,0.031,0.0249,0.025,0.025,0.025,0,0,-0.0338,-0.0195,-0.0111,0.0173,0.0339,0.0482,0.0574,0.0589,0.0627,0.0638,0.0634,0.0635,0.0592,0.0443,0.0353,0.0307,0.0336,0.0303,0.0392,0.0375,0.0383,0.0337,0.0328,0,0,0,0,0]}],[{"header":{"parameterUnit":"m.s-1","parameterCategory":2,"la1":30.2991,"la2":30.254,"lo1":-89.0895,"lo2":-89.0444,"dy":0.0017,"dx":0.0017,"nx":28,"ny":28,"refTime":"2023-08-11T09:00:00:Z","depth":"4","parameterNumber":2,"parameterNumberName":"U-component_of_CURRENTS"},"data":[0,0,0,0,0,0,0,0,0,0,0,0,0,0,0,0,0,0,0,0,0,0,0,0,0,0,0,0,0,0,0,0,0,0,0,0,0,0,0,0,0,0,0,0,0,0,0,0,0,0,0,0,0,0,0,0,0,0,-0.0479,-0.0478,0,-0.0349,-0.0347,-0.0345,-0.0237,-0.0237,-0.0236,-0.0236,-0.0024,-0.0019,-0.0013,0,0,0,0,0,0,0,0,0,0,0,0,0,-0.0465,-0.0466,-0.0479,-0.0478,-0.0477,-0.035,-0.0347,-0.0345,-0.0237,-0.0237,-0.0236,-0.0236,-0.0025,-0.0019,-0.0013,0,0,0,0,0,0,0,0,0,0,0,0,0,-0.041,-0.0467,-0.0479,-0.0414,-0.0408,-0.035,-0.0347,-0.0344,-0.0237,-0.0237,-0.0236,-0.0235,-0.0027,-0.002,-0.0012,0.0023,0,0,0.0012,0.0015,0,0,0,0,0,0,0,0,-0.0413,-0.041,-0.0425,-0.0419,-0.0411,-0.0316,-0.0265,-0.022,-0.0237,-0.0294,-0.0236,-0.0235,-0.0119,-0.0104,-0.0071,0.0033,0.0042,0.0013,0.0017,0.0021,0.0023,0,0,0,0,0,0,0,-0.0418,-0.0414,-0.042,-0.0424,-0.0416,-0.0334,-0.0326,-0.0254,-0.0204,-0.0289,-0.0283,-0.0281,-0.0114,-0.0079,-0.0065,0.0045,0.0012,0.0019,0.0024,0.0027,0.033,0.0334,0,0,0,0,0,0,-0.0459,-0.0419,-0.0424,-0.0417,-0.0419,-0.0336,-0.0327,-0.0341,-0.0206,-0.0188,-0.0281,-0.0276,-0.0093,-0.0074,-0.0057,0.0183,0.0021,0.0028,0.0033,0.0327,0.0331,0.0335,0,0,0,0,0,0,-0.046,-0.0462,-0.0429,-0.0419,-0.0411,-0.0339,-0.0354,-0.0339,-0.024,-0.0203,-0.0182,-0.0193,-0.0091,-0.0068,0.0083,0.0185,0.0032,0.0039,0.0323,0.0328,0.0333,0.0542,0,0,0,0,0,0,-0.046,-0.0463,-0.0483,-0.0423,-0.0413,-0.0349,-0.0355,-0.0337,-0.0248,-0.0238,-0.0122,-0.0105,-0.0089,0.0072,0.0091,0.0193,0.0045,0.0319,0.0325,0.0331,0.0531,0.0553,0.0572,0,0,0,0,0,-0.046,-0.0477,-0.0485,-0.0486,-0.0446,-0.0348,-0.0331,-0.0273,-0.0244,-0.0182,-0.0092,-0.0105,0.0123,0.0082,0.0104,0.021,0.0316,0.0324,0.0331,0.0521,0.0549,0.0572,0,0,0,0,0,0,-0.0464,-0.0467,-0.0474,-0.049,-0.0411,-0.0331,-0.0282,-0.0232,-0.0112,-0.0076,-0.0039,-0.0014,0.0147,0.0144,0.0098,0.0307,0.0208,0.022,0.0345,0.0371,0.0392,0.0298,0.0051,0,0,0,0,0,-0.0488,-0.0506,-0.0461,-0.0461,-0.0421,-0.0337,-0.029,-0.0223,-0.0123,-0.0067,0.0031,0.0112,0.0183,0.0253,0.0317,0.0454,0.0271,0.0523,0.0544,0.0562,0.0497,0.0223,0.021,0.0359,0.0359,0.0359,0,0,-0.0496,-0.0495,-0.0508,-0.0464,-0.0397,-0.0294,-0.0299,-0.0179,-0.0066,-0.0063,0.0153,0.0204,0.0233,0.0385,0.0454,0.0409,0.0457,0.0572,0.0588,0.051,0.0229,0.0213,0.0198,0.0365,0.0364,0.0363,0,0,-0.0469,-0.0498,-0.0477,-0.0399,-0.0294,-0.023,-0.0179,-0.003,0.0061,0.0261,0.0269,0.0341,0.0549,0.0531,0.0552,0.0711,0.0569,0.0799,0.0851,0.0591,0.0573,0.0554,0.0424,0.0391,0.0818,0.0818,0.0819,0,-0.0467,-0.0439,-0.044,-0.0352,-0.0269,-0.0186,-0.0061,0.0037,0.0234,0.0283,0.0365,0.0513,0.0577,0.0605,0.071,0.075,0.0626,0.0768,0.0608,0.0585,0.0562,0.043,0.0392,0.0829,0.0828,0.0827,0.0826,0,-0.0404,-0.0346,-0.0296,-0.0184,-0.0093,0.0042,0.0167,0.0299,0.0437,0.0499,0.0618,0.0675,0.0721,0.0796,0.0847,0.0761,0.0741,0.0655,0.0527,0.0557,0.0422,0.0378,0.0845,0.0841,0.0838,0.0835,0,0,-0.0445,-0.0292,-0.0259,-0.0162,0.0027,0.0121,0.0297,0.0433,0.0487,0.067,0.0683,0.0858,0.0833,0.0844,0.0866,0.0705,0.0545,0.0674,0.0655,0.0517,0.0062,0.0339,0.0316,0.0435,0.0426,0.0419,0.0075,0,-0.036,-0.0189,-0.0126,0.0099,0.0222,0.034,0.0469,0.0592,0.0688,0.072,0.0704,0.0753,0.0864,0.0894,0.0755,0.0553,0.0419,0.065,0.0073,0.0056,0.0269,0.0268,0.039,0.004,0.003,0.0022,0.0017,0,-0.0289,-0.0179,0.0035,0.0235,0.0295,0.043,0.0593,0.0714,0.0721,0.0781,0.0759,0.0734,0.0617,0.0656,0.0288,0.0444,0.0294,0.0127,0.0106,0.0225,0.0245,-0.0029,-0.0067,-0.0061,-0.0054,-0.0049,-0.0044,0,-0.0285,-0.0054,0.012,0.0208,0.043,0.054,0.0648,0.0729,0.0761,0.0756,0.0709,0.0592,0.0476,0.0231,0.0066,0.0142,-0.0426,-0.0412,-0.0319,-0.0299,-0.0548,-0.0527,-0.0752,-0.0752,-0.0751,-0.075,-0.0749,0,-0.0208,-0.0063,0.0139,0.0249,0.0409,0.0563,0.066,0.0754,0.0735,0.0659,0.0706,0.0564,0.0347,0.0072,-0.0068,-0.0293,-0.0542,-0.0339,-0.0402,-0.0421,-0.0383,-0.0573,-0.0547,-0.0763,-0.076,-0.0758,-0.0756,0,-0.0203,-0.0067,0.0128,0.0363,0.0425,0.0543,0.0651,0.0646,0.07,0.0559,0.0546,0.0426,0.0188,-0.0007,-0.0452,-0.0458,-0.0723,-0.0746,-0.0689,-0.074,-0.0378,-0.0337,-0.0692,-0.0686,-0.0681,-0.0677,-0.0673,0,-0.0181,-0.0069,0.0169,0.0223,0.0341,0.0483,0.0511,0.0624,0.0557,0.0451,0.0306,0.0151,0.0077,-0.0317,-0.0481,-0.0698,-0.0677,-0.0795,-0.0588,-0.0363,-0.0391,-0.0357,-0.0325,-0.0665,-0.0663,-0.0662,-0.0661,0,-0.0147,-0.0057,0.0067,0.0161,0.024,0.0298,0.0336,0.0306,0.033,0.0305,0.0167,0.0123,-0.0123,-0.0266,-0.0378,-0.0563,-0.0712,-0.0739,-0.0749,-0.0557,-0.0334,-0.0359,-0.0332,-0.0642,-0.0645,-0.0647,-0.0648,0,-0.0156,-0.0108,0.0007,0.0104,0.0138,0.0136,0.0193,0.0155,0.016,0.0097,-0.0002,-0.0094,-0.0187,-0.0209,-0.0399,-0.0424,-0.0384,-0.0389,-0.0417,-0.0438,-0.0171,0.0162,-0.0087,0,0,0,0,0,-0.0159,-0.0134,-0.0084,0.0022,0.0032,0.0086,0.0051,0.0079,0.0063,-0.0008,0.0057,-0.0093,-0.0125,-0.0199,-0.0169,-0.0309,-0.0435,-0.0275,-0.0466,-0.0542,-0.0563,-0.0256,0,0,0,0,0,0,-0.0181,-0.0143,-0.0103,-0.0081,-0.002,-0.001,0.0006,0.0004,-0.0008,-0.0014,-0.0038,-0.002,-0.0087,-0.0107,-0.0141,-0.0159,-0.0259,-0.0305,-0.0302,-0.053,-0.0549,-0.0566,-0.0258,0,0,0,0,0]},{"header":{"parameterUnit":"m.s-1","parameterCategory":2,"la1":30.2991,"la2":30.254,"lo1":-89.0895,"lo2":-89.0444,"dy":0.0017,"dx":0.0017,"nx":28,"ny":28,"refTime":"2023-08-11T09:00:00:Z","depth":"4","parameterNumber":3,"parameterNumberName":"V-component_of_CURRENTS"},"data":[0,0,0,0,0,0,0,0,0,0,0,0,0,0,0,0,0,0,0,0,0,0,0,0,0,0,0,0,0,0,0,0,0,0,0,0,0,0,0,0,0,0,0,0,0,0,0,0,0,0,0,0,0,0,0,0,0,0,0.0225,0.0225,0,0.0256,0.0257,0.0257,0.0323,0.0324,0.0325,0.0327,0.0197,0.0192,0.0188,0,0,0,0,0,0,0,0,0,0,0,0,0,0.0177,0.0177,0.0225,0.0225,0.0226,0.0256,0.0257,0.0257,0.0323,0.0324,0.0326,0.0327,0.0199,0.0193,0.0187,0,0,0,0,0,0,0,0,0,0,0,0,0,0.0202,0.0178,0.0225,0.0262,0.0266,0.0256,0.0257,0.0257,0.0322,0.0324,0.0326,0.0328,0.02,0.0194,0.0187,0.0103,0,0,0.0165,0.0162,0,0,0,0,0,0,0,0,0.02,0.0203,0.0256,0.026,0.0264,0.0288,0.0193,0.0198,0.0322,0.03,0.0327,0.0329,0.0211,0.0203,0.0207,0.0097,0.0091,0.0164,0.016,0.0157,0.0155,0,0,0,0,0,0,0,0.0198,0.0202,0.0237,0.0257,0.0261,0.0262,0.0268,0.0194,0.0241,0.0303,0.0307,0.0311,0.0212,0.0214,0.0204,0.0089,0.0165,0.0158,0.0154,0.0151,-0.0096,-0.0098,0,0,0,0,0,0,0.0195,0.02,0.0236,0.0238,0.0237,0.0262,0.0269,0.0278,0.0245,0.0244,0.0309,0.0314,0.0225,0.0212,0.0199,0.0158,0.0157,0.0151,0.0147,-0.0094,-0.0096,-0.0099,0,0,0,0,0,0,0.0194,0.0198,0.0235,0.022,0.0225,0.0261,0.027,0.0278,0.0316,0.0252,0.0248,0.0345,0.0226,0.0209,0.0139,0.0151,0.0147,0.0141,-0.0091,-0.0094,-0.0098,0.0035,0,0,0,0,0,0,0.0193,0.0198,0.0232,0.022,0.0226,0.0238,0.0269,0.0277,0.0313,0.032,0.0279,0.0269,0.0226,0.015,0.0132,0.0141,0.0135,-0.0088,-0.0092,-0.0097,0.0033,0.0036,0.0038,0,0,0,0,0,0.0191,0.0217,0.0233,0.0239,0.0262,0.0238,0.024,0.0272,0.0313,0.0318,0.0285,0.0272,0.0109,0.0142,0.0122,0.0129,-0.0086,-0.0091,-0.0096,0.0032,0.0035,0.0038,0,0,0,0,0,0,0.0218,0.0226,0.0243,0.0275,0.0263,0.0249,0.0277,0.0288,0.0274,0.0297,0.0242,0.0225,0.0161,0.0107,0.0145,0.0034,0.0008,-0.0002,0.0112,0.0115,0.0117,0.0114,0.013,0,0,0,0,0,0.0237,0.0266,0.0249,0.028,0.0279,0.0285,0.0295,0.0306,0.0282,0.0285,0.0255,0.0197,0.0115,0.0091,0.0009,-0.0044,-0.0081,-0.0061,-0.0058,-0.0055,-0.0078,-0.0185,-0.0192,-0.0116,-0.0116,-0.0116,0,0,0.0254,0.0268,0.0285,0.0289,0.0296,0.0273,0.0297,0.0314,0.03,0.0262,0.0252,0.0201,0.0094,0.0034,0.0002,0.0004,-0.0072,-0.0061,-0.0057,-0.0083,-0.0191,-0.0198,-0.0204,-0.012,-0.0119,-0.0119,0,0,0.0275,0.0316,0.0332,0.0318,0.0327,0.031,0.0317,0.0314,0.0327,0.0307,0.0251,0.0185,0.013,0.0022,-0.0034,-0.0085,-0.0068,-0.0071,-0.0035,-0.0136,-0.0142,-0.0148,-0.0076,-0.0078,-0.0051,-0.0051,-0.005,0,0.0299,0.0318,0.033,0.0324,0.032,0.0322,0.0309,0.0297,0.0275,0.0251,0.0322,0.0157,0.0102,-0.0064,-0.0034,-0.0079,-0.0053,-0.0017,-0.0126,-0.0134,-0.0143,-0.007,-0.0073,-0.0045,-0.0045,-0.0046,-0.0047,0,0.0308,0.0326,0.0332,0.0322,0.0309,0.0308,0.0273,0.0272,0.0316,0.0287,0.0201,0.0128,0.0038,0.0015,0.0011,-0.0101,-0.0026,-0.0113,-0.0113,-0.0141,-0.0062,-0.0067,-0.0037,-0.0039,-0.004,-0.0042,0,0,0.0348,0.034,0.0349,0.034,0.0318,0.0299,0.0268,0.0209,0.0174,0.0182,0.0108,0.0029,0.0034,-0.0036,-0.0084,-0.0144,-0.0101,-0.0089,-0.0097,0.0025,-0.0154,-0.0171,-0.0177,-0.0166,-0.017,-0.0172,-0.0024,0,0.0355,0.0347,0.0341,0.0317,0.0296,0.0277,0.0238,0.0186,0.0165,0.009,0.0002,-0.006,-0.0004,0.0004,-0.0058,-0.0152,-0.0129,-0.0124,-0.0186,-0.0185,-0.0168,-0.0195,-0.0184,-0.0028,-0.0029,-0.003,-0.0031,0,0.0363,0.0356,0.0354,0.0305,0.03,0.0309,0.0244,0.0215,0.0081,0.0076,-0.0009,-0.0078,-0.0173,-0.011,-0.0205,-0.0172,-0.0108,-0.0148,-0.0146,-0.0236,-0.0222,-0.0037,-0.0042,-0.0041,-0.004,-0.0039,-0.0039,0,0.0376,0.0356,0.0369,0.0358,0.0307,0.034,0.0346,0.0247,0.0188,0.0096,0.0028,-0.0103,-0.0159,-0.0175,-0.0148,-0.0149,-0.0234,-0.0287,-0.0235,-0.0227,-0.0303,-0.0301,-0.0319,-0.0319,-0.032,-0.032,-0.032,0,0.0365,0.0366,0.0413,0.0414,0.0425,0.0418,0.0408,0.0374,0.027,0.0119,0.0076,-0.0079,-0.0173,-0.0243,-0.0175,-0.0194,-0.0228,-0.0232,-0.024,-0.0232,-0.0224,-0.0297,-0.0296,-0.0314,-0.0316,-0.0317,-0.0318,0,0.0346,0.038,0.0376,0.0404,0.0439,0.0474,0.0485,0.0406,0.0384,0.0177,0.0159,-0.0053,-0.0155,-0.02,-0.027,-0.0247,-0.0254,-0.0215,-0.0071,-0.0071,-0.0144,-0.0139,-0.02,-0.0201,-0.0201,-0.0202,-0.0202,0,0.0321,0.0336,0.0393,0.0408,0.0457,0.052,0.0503,0.0496,0.0352,0.0157,-0.0019,-0.0133,-0.027,-0.0307,-0.035,-0.0245,-0.0238,-0.0144,-0.0272,-0.0155,-0.0155,-0.0149,-0.0143,-0.0202,-0.0203,-0.0203,-0.0203,0,0.024,0.0302,0.0286,0.0354,0.0395,0.0348,0.033,0.0277,0.0157,0.0086,-0.0127,-0.0177,-0.0344,-0.0385,-0.0272,-0.0215,-0.0198,-0.0149,-0.015,-0.027,-0.0158,-0.0156,-0.015,-0.0204,-0.0204,-0.0204,-0.0204,0,0.0179,0.0144,0.0176,0.0235,0.0253,0.0188,0.0214,0.0085,0.0016,-0.0173,-0.0241,-0.0323,-0.0398,-0.0369,-0.0289,-0.0232,-0.027,-0.0213,-0.0211,-0.021,-0.03,-0.0164,-0.023,0,0,0,0,0,0.0095,0.0043,0.0045,0.0068,0.0095,0.0128,0.0027,0.0015,-0.0064,-0.0212,-0.0201,-0.0316,-0.0308,-0.0334,-0.0287,-0.0359,-0.0281,-0.0304,-0.0216,-0.0212,-0.0211,-0.0325,0,0,0,0,0,0,0.0004,-0.0017,-0.0021,-0.0051,-0.0013,-0.0052,-0.0068,-0.0125,-0.0205,-0.0245,-0.0237,-0.0262,-0.0258,-0.0302,-0.0263,-0.0267,-0.0196,-0.0316,-0.0314,-0.0213,-0.0212,-0.021,-0.0328,0,0,0,0,0]}]]